Tracking 30058 objects as of 9-Dec-2024
HD Live streaming from Space Station
objects crossing your sky now

STARLINK-30083

Track STARLINK-30083 now!
10-day predictions
STARLINK-30083 is classified as:


NORAD ID: 56295
Int'l Code: 2023-056K
Perigee: 565.3 km
Apogee: 567.2 km
Inclination: 43.0 °
Period: 95.8 minutes
Semi major axis: 6937 km
RCS: Unknown
Launch date: April 19, 2023
Source: United States (US)
Launch site: AIR FORCE EASTERN TEST RANGE (AFETR)
Your satellite tracking list
Your tracking list is empty




NASA's NSSDC Master Catalog

Two Line Element Set (TLE):
1 56295U 23056K   24344.47139588 -.00002034  00000-0 -13556-3 0  9999
2 56295  43.0034 137.9531 0001340 277.4956  82.5734 15.02531559 91847
Source of the keplerian elements: AFSPC